WHDW 03-03

operational
NORAD ID: 63689 Int'l Des: 2025-086 Owner: ZXW Country: CN
LEOCIRCULARPOLARONEWEB_TYPE

About WHDW 03-03

Description loading...

Live Position

Loading 3D Globe...

Upcoming Passes

Altitude History

Altitude vs Time

uPlot chart will show altitude changes over time

Two-Line Element Set

1 63689U 25086C 26062.12124997 .00000085 00000-0 16312-3 0 9993
2 63689 86.5118 348.7796 0001772 92.6078 267.5259 13.24421281 40824
Epoch: Mar 3, 2026 • Age: 29 hours

Current Status

Altitude 1176.0 km
Velocity 7.27 km/s
Sub-Earth Point 55.30°N, 122.9°E
Launch Date Apr 28, 2025
Age 0.8 years
Type other

Technical Details

Classification Payload
Mass 800.00 kg
Dry Mass 800.00 kg
Total Mass 800.00 kg
Length 3.00 m
Diameter 1.00 m
Span 10.00 m
Shape Box + 2 Pan
Manufacturer CAST
Bus Type Xingwang CL
Phase Status In Orbit
Owner/State ZXW/CN

Large Constellations

Loading constellations...